TimeCDT,TemperatureF,Dew PointF,Humidity,Sea Level PressureIn,VisibilityMPH,Wind Direction,Wind SpeedMPH,Gust SpeedMPH,PrecipitationIn,Events,Conditions,WindDirDegrees,DateUTC
12:15 AM,55.4,53.6,94,29.69,10.0,Calm,Calm,-,N/A,Rain-Thunderstorm,Light Thunderstorms and Rain,0,2013-04-08 05:15:00
12:35 AM,55.4,53.6,94,29.73,10.0,WNW,19.6,31.1,N/A,Rain-Thunderstorm,Light Thunderstorms and Rain,290,2013-04-08 05:35:00
12:55 AM,55.4,53.6,94,29.69,7.0,SW,9.2,12.7,N/A,Rain-Thunderstorm,Light Thunderstorms and Rain,230,2013-04-08 05:55:00
1:15 AM,55.4,51.8,88,29.69,10.0,West,9.2,16.1,N/A,Rain-Thunderstorm,Light Thunderstorms and Rain,280,2013-04-08 06:15:00
1:35 AM,55.4,51.8,88,29.69,10.0,West,6.9,-,N/A,,Clear,270,2013-04-08 06:35:00
1:55 AM,55.4,51.8,88,29.70,10.0,West,4.6,-,N/A,,Scattered Clouds,270,2013-04-08 06:55:00
2:15 AM,53.6,51.8,94,29.69,10.0,WSW,8.1,-,N/A,,Scattered Clouds,250,2013-04-08 07:15:00
2:35 AM,53.6,51.8,94,29.70,10.0,SW,5.8,-,N/A,,Mostly Cloudy,220,2013-04-08 07:35:00
2:55 AM,53.6,51.8,94,29.70,10.0,SW,3.5,-,N/A,,Mostly Cloudy,230,2013-04-08 07:55:00
3:15 AM,53.6,51.8,94,29.69,10.0,South,5.8,-,N/A,,Overcast,190,2013-04-08 08:15:00
3:35 AM,53.6,51.8,94,29.69,10.0,SSW,3.5,-,N/A,,Overcast,200,2013-04-08 08:35:00
3:55 AM,55.4,51.8,88,29.68,10.0,SSW,3.5,-,N/A,,Overcast,200,2013-04-08 08:55:00
4:15 AM,55.4,51.8,88,29.68,10.0,Calm,Calm,-,N/A,,Overcast,0,2013-04-08 09:15:00
4:35 AM,55.4,51.8,88,29.68,10.0,Calm,Calm,-,N/A,,Overcast,0,2013-04-08 09:35:00
4:55 AM,55.4,51.8,88,29.68,10.0,Calm,Calm,-,N/A,,Overcast,0,2013-04-08 09:55:00
5:15 AM,55.4,53.6,94,29.68,10.0,Calm,Calm,-,N/A,,Overcast,0,2013-04-08 10:15:00
5:55 AM,55.4,53.6,94,29.68,10.0,Calm,Calm,-,N/A,,Overcast,0,2013-04-08 10:55:00
6:15 AM,55.4,53.6,94,29.68,10.0,Calm,Calm,-,N/A,,Overcast,0,2013-04-08 11:15:00
6:35 AM,53.6,53.6,100,29.69,7.0,Calm,Calm,-,N/A,,Mostly Cloudy,0,2013-04-08 11:35:00
6:55 AM,53.6,53.6,100,29.70,5.0,Calm,Calm,-,N/A,,Mostly Cloudy,0,2013-04-08 11:55:00
7:15 AM,53.6,53.6,100,29.72,7.0,Calm,Calm,-,N/A,,Overcast,0,2013-04-08 12:15:00
7:35 AM,53.6,53.6,100,29.72,7.0,Calm,Calm,-,N/A,,Overcast,0,2013-04-08 12:35:00
7:55 AM,55.4,53.6,94,29.73,10.0,Calm,Calm,-,N/A,,Overcast,0,2013-04-08 12:55:00
8:15 AM,55.4,53.6,94,29.73,10.0,Calm,Calm,-,N/A,,Overcast,0,2013-04-08 13:15:00
8:35 AM,55.4,53.6,94,29.74,10.0,Calm,Calm,-,N/A,,Overcast,0,2013-04-08 13:35:00
8:55 AM,57.2,55.4,94,29.73,10.0,Calm,Calm,-,N/A,,Overcast,0,2013-04-08 13:55:00
9:15 AM,59.0,55.4,88,29.72,10.0,SE,3.5,-,N/A,,Scattered Clouds,130,2013-04-08 14:15:00
9:35 AM,59.0,57.2,94,29.71,10.0,SE,3.5,-,N/A,,Clear,130,2013-04-08 14:35:00
9:55 AM,60.8,57.2,88,29.72,10.0,SSE,5.8,-,N/A,,Clear,150,2013-04-08 14:55:00
10:15 AM,60.8,59.0,94,29.73,10.0,Calm,Calm,-,N/A,,Clear,0,2013-04-08 15:15:00
10:35 AM,62.6,59.0,88,29.73,10.0,Calm,Calm,-,N/A,,Clear,0,2013-04-08 15:35:00
10:55 AM,62.6,59.0,88,29.73,10.0,SSE,6.9,-,N/A,,Clear,150,2013-04-08 15:55:00
11:15 AM,64.4,59.0,83,29.73,10.0,Calm,Calm,-,N/A,,Clear,0,2013-04-08 16:15:00
11:35 AM,66.2,59.0,78,29.74,10.0,SSW,6.9,-,N/A,,Scattered Clouds,200,2013-04-08 16:35:00
11:55 AM,68.0,60.8,78,29.73,10.0,SSE,6.9,-,N/A,,Scattered Clouds,150,2013-04-08 16:55:00
12:15 PM,68.0,60.8,78,29.75,10.0,South,9.2,-,N/A,,Mostly Cloudy,190,2013-04-08 17:15:00
12:35 PM,68.0,60.8,78,29.75,10.0,South,6.9,-,N/A,,Overcast,190,2013-04-08 17:35:00
12:55 PM,68.0,60.8,78,29.74,10.0,South,3.5,-,N/A,,Overcast,170,2013-04-08 17:55:00
1:15 PM,68.0,60.8,78,29.73,10.0,SE,4.6,-,N/A,,Scattered Clouds,130,2013-04-08 18:15:00
1:35 PM,69.8,60.8,73,29.73,10.0,SSE,5.8,-,N/A,,Clear,160,2013-04-08 18:35:00
1:55 PM,69.8,60.8,73,29.73,10.0,SSE,4.6,-,N/A,,Mostly Cloudy,150,2013-04-08 18:55:00
2:15 PM,69.8,60.8,73,29.73,10.0,South,6.9,-,N/A,,Overcast,190,2013-04-08 19:15:00
2:35 PM,69.8,60.8,73,29.73,10.0,SE,6.9,-,N/A,,Overcast,140,2013-04-08 19:35:00
2:55 PM,69.8,60.8,73,29.73,10.0,SE,5.8,-,N/A,,Overcast,140,2013-04-08 19:55:00
3:15 PM,69.8,60.8,73,29.72,10.0,SE,6.9,-,N/A,,Overcast,130,2013-04-08 20:15:00
3:35 PM,69.8,60.8,73,29.72,10.0,ESE,8.1,-,N/A,,Overcast,110,2013-04-08 20:35:00
3:55 PM,69.8,60.8,73,29.70,10.0,ESE,4.6,-,N/A,,Overcast,120,2013-04-08 20:55:00
4:15 PM,71.6,62.6,73,29.69,10.0,SE,9.2,-,N/A,,Mostly Cloudy,130,2013-04-08 21:15:00
4:35 PM,71.6,60.8,69,29.69,10.0,SE,10.4,-,N/A,,Mostly Cloudy,130,2013-04-08 21:35:00
5:35 PM,71.6,60.8,69,29.68,10.0,SSE,8.1,-,N/A,,Overcast,150,2013-04-08 22:35:00
5:55 PM,71.6,60.8,69,29.69,10.0,SSE,10.4,-,N/A,,Mostly Cloudy,160,2013-04-08 22:55:00
6:15 PM,71.6,60.8,69,29.69,10.0,SSE,6.9,-,N/A,,Overcast,150,2013-04-08 23:15:00
6:35 PM,71.6,60.8,69,29.69,10.0,SSE,6.9,-,N/A,,Overcast,150,2013-04-08 23:35:00
6:55 PM,71.6,60.8,69,29.70,10.0,SSE,6.9,-,N/A,,Overcast,150,2013-04-08 23:55:00
7:15 PM,69.8,60.8,73,29.70,10.0,SSE,4.6,-,N/A,,Overcast,150,2013-04-09 00:15:00
7:35 PM,69.8,60.8,73,29.71,10.0,Calm,Calm,-,N/A,,Overcast,0,2013-04-09 00:35:00
7:55 PM,69.8,60.8,73,29.72,10.0,Calm,Calm,-,N/A,,Overcast,0,2013-04-09 00:55:00
8:15 PM,69.8,60.8,73,29.72,10.0,Calm,Calm,-,N/A,,Overcast,0,2013-04-09 01:15:00
8:35 PM,69.8,60.8,73,29.72,10.0,Calm,Calm,-,N/A,,Overcast,0,2013-04-09 01:35:00
8:55 PM,68.0,60.8,78,29.73,10.0,East,3.5,-,N/A,,Overcast,100,2013-04-09 01:55:00
9:15 PM,68.0,62.6,83,29.73,10.0,ESE,4.6,-,N/A,,Overcast,110,2013-04-09 02:15:00
9:35 PM,68.0,60.8,78,29.74,10.0,ESE,4.6,-,N/A,,Overcast,110,2013-04-09 02:35:00
9:55 PM,68.0,60.8,78,29.74,10.0,SE,4.6,-,N/A,Rain,Light Rain,130,2013-04-09 02:55:00
10:15 PM,68.0,60.8,78,29.75,10.0,SSE,8.1,-,N/A,,Overcast,150,2013-04-09 03:15:00
10:35 PM,68.0,60.8,78,29.75,10.0,SSE,5.8,-,N/A,,Overcast,150,2013-04-09 03:35:00
10:55 PM,68.0,60.8,78,29.75,10.0,SE,5.8,-,N/A,,Overcast,140,2013-04-09 03:55:00
11:15 PM,68.0,60.8,78,29.75,10.0,SE,5.8,-,N/A,,Overcast,140,2013-04-09 04:15:00
11:35 PM,68.0,59.0,73,29.74,10.0,SE,6.9,-,N/A,,Overcast,140,2013-04-09 04:35:00
11:55 PM,68.0,59.0,73,29.73,10.0,SE,6.9,-,N/A,,Overcast,140,2013-04-09 04:55:00